FLOCK 2B-3

Last updated on Oct. 14, 2016, 9:19 a.m. UTC

1 40952U 98067HD  16287.83599325  .06081776  12235-4  75080-3 0  9993
2 40952  51.6222 131.1440 0013795 261.9314  98.0393 16.35026669 58835

Satellite is not in orbit.